Weather History for North Myrtle Beach, SC

Change the Weather History Date:

Tuesday, December 27, 2011

  Actual Average Record
Temperature  
Mean Temperature 56 °F 47 °F  
Max Temperature 67 °F 56 °F 75 °F (1949)
Min Temperature 44 °F 37 °F 24 °F (2004)
Degree Days  
Heating Degree Days 9 18  
Month to date heating degree days 326 432  
Since 1 July heating degree days 673 793  
Cooling Degree Days 0 0  
Month to date cooling degree days 1 0  
Year to date cooling degree days 2204 1899  
Growing Degree Days 6 (Base 50)    
Moisture  
Dew Point 54 °F    
Average Humidity 74    
Maximum Humidity 93    
Minimum Humidity 54    
Precipitation  
Precipitation 0.17 in 0.09 in 0.17 in (2000)
Month to date precipitation 0.48 3.11  
Year to date precipitation 32.93 51.66  
Sea Level Pressure  
Sea Level Pressure 29.83 in    
Wind  
Wind Speed 13 mph (SSW)    
Max Wind Speed 36 mph    
Max Gust Speed 46 mph    
Visibility 8 miles    
Events Rain    
T = Trace of Precipitation, MM = Missing Value Source: NWS Daily Summary

Daily Weather History Graph

Daily Weather History Graph

Search for Another Location

Airport:

Trip Planner

Search our weather history database for the weather conditions in past years. The results will help you decide how hot, cold, wet, or windy it might be!

Date:

Astronomy

Dec. 27, 2011 Rise Set
Actual Time 7:18 AM EST 5:13 PM EST
Civil Twilight 6:50 AM EST 5:41 PM EST
Nautical Twilight 6:19 AM EST 6:12 PM EST
Astronomical Twilight 5:49 AM EST 6:42 PM EST
Moon 9:20 AM EST (12/27) 8:35 PM EST (12/27)
Length of Visible Light 10h 50m
Length of Day
9h 55m
Waxing Crescent, 11% of the Moon is Illuminated
Dec 27
Waxing Crescent
Jan 1
First Quarter
Jan 9
Full
Jan 16
Last Quarter
Jan 23
New

Hourly Weather History & Observations

Time (EST) Temp. Dew Point Humidity Pressure Visibility Wind Dir Wind Speed Gust Speed Precip Events Conditions
12:53 AM 46.9 °F 39.9 °F 77% 30.20 in 10.0 mi ENE 6.9 mph - N/A   Overcast
1:53 AM 48.0 °F 39.9 °F 74% 30.17 in 10.0 mi NE 8.1 mph - N/A   Overcast
3:53 AM 50.0 °F 44.1 °F 80% 30.09 in 10.0 mi NE 6.9 mph - N/A   Clear
4:53 AM 53.1 °F 46.9 °F 80% 30.07 in 10.0 mi East 3.5 mph - N/A   Overcast
5:53 AM 62.1 °F 54.0 °F 75% 30.04 in 10.0 mi SSE 8.1 mph - N/A   Overcast
6:53 AM 63.0 °F 55.0 °F 75% 30.01 in 10.0 mi SSE 12.7 mph 23.0 mph N/A   Overcast
7:53 AM 63.0 °F 55.0 °F 75% 29.98 in 10.0 mi South 8.1 mph 16.1 mph N/A   Overcast
8:53 AM 64.0 °F 57.0 °F 78% 29.94 in 10.0 mi South 19.6 mph 26.5 mph N/A   Overcast
9:53 AM 63.0 °F 57.0 °F 81% 29.91 in 8.0 mi South 10.4 mph - N/A   Overcast
10:53 AM 63.0 °F 59.0 °F 87% 29.86 in 6.0 mi South 16.1 mph 24.2 mph 0.04 in Rain Light Rain
11:22 AM 62.6 °F 60.8 °F 94% 29.81 in 1.0 mi SSW 15.0 mph 24.2 mph 0.04 in Rain Light Rain
11:31 AM 62.6 °F 60.8 °F 94% 29.79 in 1.0 mi South 10.4 mph 19.6 mph 0.05 in Rain Light Rain
11:41 AM 62.6 °F 60.8 °F 94% 29.78 in 1.0 mi South 13.8 mph 21.9 mph 0.07 in Rain Rain
11:49 AM 62.6 °F 60.8 °F 94% 29.78 in 1.0 mi South 16.1 mph 24.2 mph 0.10 in Rain Rain
11:53 AM 63.0 °F 61.0 °F 93% 29.78 in 1.0 mi South 15.0 mph 24.2 mph 0.11 in Rain Rain
12:01 PM 62.6 °F 62.6 °F 100% 29.76 in 3.0 mi South 13.8 mph 23.0 mph 0.00 in Rain Light Rain
12:39 PM 64.4 °F 62.6 °F 94% 29.72 in 10.0 mi SSW 21.9 mph 31.1 mph 0.00 in   Overcast
12:53 PM 66.0 °F 62.1 °F 87% 29.71 in 10.0 mi SSW 27.6 mph 35.7 mph 0.00 in   Overcast
1:13 PM 66.2 °F 62.6 °F 88% 29.69 in 10.0 mi SSW 32.2 mph 46.0 mph N/A   Overcast
1:53 PM 64.9 °F 60.1 °F 84% 29.68 in 9.0 mi SW 31.1 mph 41.4 mph N/A   Overcast
2:05 PM 64.4 °F 60.8 °F 88% 29.68 in 7.0 mi WSW 12.7 mph 35.7 mph 0.00 in Rain Light Rain
2:29 PM 62.6 °F 57.2 °F 82% 29.68 in 6.0 mi SW 23.0 mph 31.1 mph 0.02 in Rain Light Rain
2:53 PM 64.0 °F 59.0 °F 84% 29.67 in 10.0 mi WSW 15.0 mph 23.0 mph 0.02 in   Mostly Cloudy
3:53 PM 62.1 °F 55.0 °F 78% 29.67 in 10.0 mi SW 21.9 mph 31.1 mph N/A   Clear
5:53 PM 57.9 °F 54.0 °F 87% 29.69 in 10.0 mi SW 12.7 mph - N/A   Clear
6:53 PM 59.0 °F 55.0 °F 87% 29.71 in 10.0 mi SW 15.0 mph - N/A   Partly Cloudy
7:53 PM 60.1 °F 48.0 °F 64% 29.72 in 10.0 mi West 11.5 mph 20.7 mph N/A   Clear
9:53 PM 55.0 °F 39.9 °F 57% 29.76 in 10.0 mi WNW 16.1 mph 32.2 mph N/A   Mostly Cloudy
10:53 PM 53.1 °F 37.9 °F 57% 29.77 in 10.0 mi West 11.5 mph 25.3 mph N/A   Scattered Clouds
11:53 PM 51.1 °F 37.9 °F 61% 29.78 in 10.0 mi West 15.0 mph 23.0 mph N/A   Clear